Regional Weather Roundup
Issued by NWS

Home | Current Version | Previous Version | Graphics & Text | Print | Product List | Glossary On
Versions: 1 2 3 4 5 6 7 8 9 10 11 12 13 14 15 16 17 18 19 20 21 22 23 24 25 26 27 28 29 30 31 32 33 34 35 36 37 38 39 40 41 42 43 44 45 46 47 48 49 50
000
ASUS45 KTFX 282110
RWRMT
MONTANA REGIONAL WEATHER ROUNDUP
NATIONAL WEATHER SERVICE GREAT FALLS MT
300 PM MDT THU MAY 28 2015

NOTE: "FAIR" INDICATES FEW OR NO CLOUDS BELOW 12000 FEET WITH NO
SIGNIFICANT WEATHER AND/OR OBSTRUCTIONS TO VISIBILITY.

MTZ001>007-043-282200-
WEST OF THE DIVIDE

CITY           SKY/WX    TMP DP  RH WIND       PRES   REMARKS
KALISPELL      PTCLDY    72  43  35 NE21G30   30.11F
MISSOULA       LGT RAIN  62  51  67 SE12      30.13S
BUTTE          CLOUDY    51  43  74 N14G21    30.20R
MULLAN PASS    PTSUNNY   58  44  60 N5        30.20S
DEER LODGE       N/A     52  48  87 W5        30.23F
EUREKA           N/A     73  46  38 N8        30.09F
HAMILTON         N/A     66  46  48 N10       30.13R
LIBBY            N/A     72  46  40 E7        30.08F
PLAINS           N/A     73  49  42 CALM      30.09F
RONAN            N/A     68  51  54 W1        30.16F
$$

MTZ008-052>055-282200-
SOUTHWEST MONTANA

CITY           SKY/WX    TMP DP  RH WIND       PRES   REMARKS
BOZEMAN        CLOUDY    55  49  80 W10       30.15S
DILLON         LGT RAIN  54  46  74 E12       30.16R
W YELLOWSTONE  CLOUDY    48  39  71 CALM      30.17F
THREE FORKS      N/A     59  36  42 NW3       30.12F
$$

MTZ009-010-012-014-046-048-049-054-282200-
EAST SLOPES AND CENTRAL MONTANA

CITY           SKY/WX    TMP DP  RH WIND       PRES   REMARKS
CUT BANK       CLOUDY    48  44  86 N24G35    30.24R
GREAT FALLS    CLOUDY    57  51  80 NW16      30.17R
MALMSTROM AFB  LGT RAIN  55  50  82 NW14      30.18R
HELENA         CLOUDY    57  47  69 N9        30.18S
CONRAD           N/A     50  50 100 NW17      30.21R
$$

MTZ011-013-016-021-045-047-050-051-282200-
NORTH CENTRAL MONTANA

CITY           SKY/WX    TMP DP  RH WIND       PRES   REMARKS
HAVRE          PTSUNNY   63  51  65 N23G33    30.07R
LEWISTOWN      TSTM      54  45  71 NW15G32   30.09R
N BAR RANCH    MOCLDY    55  50  82 NW12      30.09S
CHINOOK          N/A     64  54  68 NW21G29   30.04S
FORT BENTON      N/A     55  52  88 W17       30.14R
$$

MTZ017>020-022>027-061-062-282200-
NORTHEAST MONTANA

CITY           SKY/WX    TMP DP  RH WIND       PRES   REMARKS
GLASGOW        LGT RAIN  63  53  70 CALM      29.95F
JORDAN           N/A     73  48  41 N13       29.95F
SIDNEY         PTSUNNY   73  54  49 N14G20    29.89S
WOLF POINT     PTSUNNY   77  50  38 N15       29.91S
MALTA            N/A     62  50  65 NW3       29.98R
PLENTYWOOD       N/A     72  48  43 N10G18    29.92R
POPLAR           N/A     75  52  43 N13G23    29.91S
SCOBEY           N/A     71  49  45 N15       29.94R
$$

MTZ028>42-056>058-282200-
SOUTHCENTRAL AND SOUTHEAST MONTANA

CITY           SKY/WX    TMP DP  RH WIND       PRES   REMARKS
BAKER          MOSUNNY   76  49  38 NW16G23   29.92F
BILLINGS       TSTM      54  50  86 E14       30.06F
LIVINGSTON     LGT RAIN  53  47  79 SW5       30.14S
MILES CITY     PTSUNNY   75  49  39 N12G21    29.92F
BIG TIMBER       N/A     54  48  82 SW15G21   30.13R
EKALAKA          N/A     63  51  64 W8        29.94S
LAUREL           N/A     54  48  80 CALM      30.06R
ROUNDUP          N/A     68  46  45 N7        29.94S
$$

REGIONAL REPORTS...DAKOTAS

CITY           SKY/WX    TMP DP  RH WIND       PRES   REMARKS
WILLISTON      PTSUNNY   74  52  46 N14       29.88F
MINOT          PTSUNNY   71  57  61 N14G20    29.85F
DICKINSON      PTSUNNY   73  50  44 NW10      29.86F
BEACH          FAIR      73  52  46 N12G20    29.91S
CROSBY         MOCLDY    70  52  52 N14       29.91R
WATFORD CITY   FAIR      70  57  64 NW12G17   29.86F
BISMARCK       MOSUNNY   80  54  40 NW8       29.84F
GRAND FORKS    TSTM      72  66  83 W15G21    29.78F
FARGO          FAIR      82  58  43 SW23G31   29.79F
BUFFALO SD       N/A     70  54  56 N8        29.86R
RAPID CITY     MOSUNNY   73  53  49 NW10      29.91F
$$

REGIONAL REPORTS...WYOMING/IDAHO/WASHINGTON

CITY           SKY/WX    TMP DP  RH WIND       PRES   REMARKS
GILLETTE       CLOUDY    61  48  62 W9        30.01F
SHERIDAN       CLOUDY    63  46  54 NW18      30.03F
BUFFALO WY     CLOUDY    59  43  55 CALM      30.07S
CODY           CLOUDY    57  45  62 N10       30.08S
YELLOWSTONE LA   N/A     41  38  89 VRB3      30.22S
IDAHO FALLS    PTSUNNY   62  46  55 W3        30.13F
SALMON         MOSUNNY   66  45  45 CALM      30.09F
BOISE          SUNNY     76  42  29 W10G16    30.07F
SPOKANE        PTSUNNY   75  48  38 W7        30.07F
$$

REGIONAL REPORTS...ALBERTA

CITY           SKY/WX    TMP DP  RH WIND       PRES   REMARKS
EDMONTON       SUNNY     55  27  33 N7        30.31F
CALGARY        CLOUDY    50  41  71 NE12      30.30S
LETHBRIDGE     CLOUDY    48  46  93 NE15G22   30.28R SMOKE
$$

REGIONAL REPORTS...SASKATCHEWAN

CITY           SKY/WX    TMP DP  RH WIND       PRES   REMARKS
SWIFT CURRENT  CLOUDY    48  45  87 N22G30    30.12R
REGINA         MOSUNNY   59  45  58 N28G40    30.01R
SASKATOON      MOSUNNY   57  30  35 N21G31    30.17R
$$


USA.gov is the U.S. government's official web portal to all federal, state and local government web resources and services.